Weather History for Richmond, KY

Change the Weather History Date:

Thursday, March 21, 2013

  Actual Average (KLOZ) Record (KLOZ)
Temperature  
Mean Temperature 26 °F 49 °F  
Max Temperature 32 °F 60 °F 83 °F (2012)
Min Temperature 19 °F 37 °F 13 °F (1965)
Degree Days  
Heating Degree Days 40 16  
Month to date heating degree days 401  
Since 1 July heating degree days 3677  
Cooling Degree Days 0 0  
Month to date cooling degree days 0  
Year to date cooling degree days 0  
Moisture  
Dew Point 11 °F    
Average Humidity 57    
Maximum Humidity 80    
Minimum Humidity 38    
Precipitation  
Precipitation 0.00 in 0.13 in 2.48 in (1955)
Month to date precipitation 2.74  
Year to date precipitation 9.99  
Sea Level Pressure  
Sea Level Pressure 30.00 in    
Wind  
Wind Speed 7 mph (WNW)    
Max Wind Speed 13 mph    
Max Gust Speed 20 mph    
Visibility 10 miles    
Events      
T = Trace of Precipitation, MM = Missing Value Source: NWS Daily Summary

Daily Weather History Graph

Daily Weather History Graph

Search for Another Location

Airport:

Trip Planner

Search our weather history database for the weather conditions in past years. The results will help you decide how hot, cold, wet, or windy it might be!

Date:

Astronomy

Mar. 21, 2013 Rise Set
Actual Time 7:38 AM EDT 7:50 PM EDT
Civil Twilight 7:12 AM EDT 8:16 PM EDT
Nautical Twilight 6:42 AM EDT 8:47 PM EDT
Astronomical Twilight 6:11 AM EDT 9:18 PM EDT
Moon 2:24 PM EDT (3/21) 3:54 AM EDT (3/21)
Length of Visible Light 13h 03m
Length of Day
12h 11m
Waxing Gibbous, 68% of the Moon is Illuminated
Mar 21
Waxing Gibbous
Mar 27
Full
Apr 3
Last Quarter
Apr 10
New
Apr 18
First Quarter

Hourly Weather History & Observations

Time (EDT) Temp. Windchill Dew Point Humidity Pressure Visibility Wind Dir Wind Speed Gust Speed Precip Events Conditions
12:15 AM 24.8 °F 14.6 °F 8.6 °F 50% 30.02 in 10.0 mi NW 10.4 mph 19.6 mph N/A   Mostly Cloudy
12:35 AM 24.8 °F 16.1 °F 8.6 °F 50% 30.02 in 10.0 mi NW 8.1 mph - N/A   Scattered Clouds
12:55 AM 24.8 °F 16.9 °F 10.4 °F 54% 30.01 in 10.0 mi NW 6.9 mph - N/A   Clear
1:15 AM 23.0 °F 15.8 °F 10.4 °F 59% 30.01 in 10.0 mi WNW 5.8 mph - N/A   Clear
1:35 AM 23.0 °F 17.0 °F 10.4 °F 59% 30.01 in 10.0 mi WNW 4.6 mph - N/A   Clear
1:55 AM 23.0 °F 14.7 °F 10.4 °F 59% 30.01 in 10.0 mi West 6.9 mph - N/A   Clear
2:15 AM 21.2 °F 14.9 °F 10.4 °F 63% 30.01 in 10.0 mi West 4.6 mph - N/A   Clear
2:35 AM 21.2 °F 13.6 °F 12.2 °F 68% 30.01 in 10.0 mi West 5.8 mph - N/A   Clear
2:55 AM 21.2 °F 14.9 °F 10.4 °F 63% 30.00 in 10.0 mi WSW 4.6 mph - N/A   Clear
3:15 AM 21.2 °F 13.6 °F 12.2 °F 68% 30.00 in 10.0 mi WSW 5.8 mph - N/A   Clear
3:35 AM 21.2 °F 13.6 °F 12.2 °F 68% 29.99 in 10.0 mi West 5.8 mph - N/A   Clear
3:55 AM 21.2 °F 14.9 °F 12.2 °F 68% 29.98 in 10.0 mi West 4.6 mph - N/A   Clear
4:15 AM 21.2 °F 13.6 °F 12.2 °F 68% 29.98 in 10.0 mi WSW 5.8 mph - N/A   Clear
4:35 AM 21.2 °F 12.6 °F 12.2 °F 68% 29.98 in 10.0 mi WSW 6.9 mph - N/A   Clear
5:15 AM 19.4 °F 10.4 °F 12.2 °F 74% 29.96 in 10.0 mi West 6.9 mph - N/A   Clear
5:35 AM 19.4 °F 9.5 °F 12.2 °F 74% 29.96 in 10.0 mi WSW 8.1 mph - N/A   Clear
5:55 AM 19.4 °F 10.4 °F 12.2 °F 74% 29.96 in 10.0 mi WSW 6.9 mph - N/A   Clear
6:15 AM 19.4 °F 10.4 °F 12.2 °F 74% 29.96 in 10.0 mi West 6.9 mph - N/A   Clear
6:35 AM 19.4 °F 10.4 °F 12.2 °F 74% 29.95 in 10.0 mi West 6.9 mph - N/A   Clear
7:15 AM 19.4 °F 11.5 °F 12.2 °F 74% 29.96 in 10.0 mi West 5.8 mph - N/A   Clear
7:35 AM 19.4 °F 11.5 °F 12.2 °F 74% 29.96 in 10.0 mi West 5.8 mph - N/A   Clear
7:55 AM 19.4 °F 12.8 °F 12.2 °F 74% 29.96 in 10.0 mi West 4.6 mph - N/A   Clear
8:15 AM 19.4 °F 10.4 °F 12.2 °F 74% 29.96 in 10.0 mi West 6.9 mph - N/A   Clear
8:35 AM 19.4 °F 10.4 °F 14.0 °F 80% 29.97 in 10.0 mi West 6.9 mph - N/A   Clear
8:55 AM 21.2 °F 10.9 °F 14.0 °F 74% 29.97 in 10.0 mi West 9.2 mph - N/A   Clear
9:15 AM 23.0 °F 12.4 °F 14.0 °F 68% 29.97 in 10.0 mi WNW 10.4 mph - N/A   Clear
9:35 AM 23.0 °F 11.1 °F 12.2 °F 63% 29.98 in 10.0 mi WNW 12.7 mph 18.4 mph N/A   Clear
10:15 AM 24.8 °F 14.0 °F 10.4 °F 54% 29.99 in 10.0 mi WNW 11.5 mph 18.4 mph N/A   Clear
10:35 AM 24.8 °F 15.3 °F 10.4 °F 54% 29.99 in 10.0 mi NW 9.2 mph - N/A   Mostly Cloudy
10:55 AM 24.8 °F 15.3 °F 10.4 °F 54% 30.00 in 10.0 mi NW 9.2 mph - N/A   Overcast
11:15 AM 24.8 °F 14.0 °F 10.4 °F 54% 30.00 in 10.0 mi NW 11.5 mph - N/A   Overcast
11:35 AM 24.8 °F 14.0 °F 12.2 °F 59% 30.01 in 10.0 mi WNW 11.5 mph 16.1 mph N/A   Overcast
11:55 AM 24.8 °F 14.6 °F 12.2 °F 59% 30.02 in 10.0 mi NW 10.4 mph - N/A   Overcast
12:15 PM 24.8 °F 14.6 °F 12.2 °F 59% 30.02 in 10.0 mi NW 10.4 mph - N/A   Overcast
12:35 PM 26.6 °F 16.2 °F 12.2 °F 55% 30.01 in 10.0 mi WNW 11.5 mph - N/A   Overcast
12:55 PM 26.6 °F 18.2 °F 10.4 °F 51% 30.01 in 10.0 mi NW 8.1 mph - N/A   Overcast
1:15 PM 26.6 °F 16.2 °F 10.4 °F 51% 30.02 in 10.0 mi WNW 11.5 mph - N/A   Overcast
1:35 PM 26.6 °F 16.8 °F 10.4 °F 51% 30.01 in 10.0 mi WNW 10.4 mph 17.3 mph N/A   Overcast
1:55 PM 28.4 °F 19.1 °F 12.2 °F 51% 30.01 in 10.0 mi West 10.4 mph - N/A   Overcast
2:15 PM 28.4 °F 19.1 °F 10.4 °F 47% 30.01 in 10.0 mi NNW 10.4 mph - N/A   Overcast
2:35 PM 28.4 °F 18.0 °F 10.4 °F 47% 30.01 in 10.0 mi NW 12.7 mph 16.1 mph N/A   Overcast
3:15 PM 30.2 °F 21.9 °F 12.2 °F 47% 30.01 in 10.0 mi NNW 9.2 mph - N/A   Overcast
3:35 PM 30.2 °F 21.9 °F 12.2 °F 47% 30.00 in 10.0 mi WNW 9.2 mph - N/A   Overcast
3:55 PM 30.2 °F 21.3 °F 10.4 °F 44% 30.00 in 10.0 mi NNW 10.4 mph 16.1 mph N/A   Overcast
4:15 PM 30.2 °F 21.9 °F 10.4 °F 44% 30.00 in 10.0 mi NW 9.2 mph - N/A   Mostly Cloudy
4:35 PM 30.2 °F 23.4 °F 8.6 °F 40% 30.00 in 10.0 mi West 6.9 mph - N/A   Mostly Cloudy
4:55 PM 30.2 °F 21.9 °F 10.4 °F 44% 30.00 in 10.0 mi NNW 9.2 mph - N/A   Mostly Cloudy
5:15 PM 30.2 °F 26.7 °F 8.6 °F 40% 30.00 in 10.0 mi NW 3.5 mph - N/A   Mostly Cloudy
5:35 PM 32.0 °F 25.6 °F 8.6 °F 38% 29.99 in 10.0 mi West 6.9 mph - N/A   Mostly Cloudy
5:55 PM 32.0 °F 26.4 °F 8.6 °F 38% 29.99 in 10.0 mi West 5.8 mph - N/A   Mostly Cloudy
6:35 PM 30.2 °F - 8.6 °F 40% 29.99 in 10.0 mi Calm Calm - N/A   Overcast
6:55 PM 30.2 °F 23.4 °F 10.4 °F 44% 29.99 in 10.0 mi WNW 6.9 mph - N/A   Overcast
7:15 PM 30.2 °F - 10.4 °F 44% 29.99 in 10.0 mi Calm Calm - N/A   Scattered Clouds
7:35 PM 30.2 °F - 10.4 °F 44% 29.99 in 10.0 mi Calm Calm - N/A   Scattered Clouds
7:55 PM 28.4 °F 24.6 °F 10.4 °F 47% 29.99 in 10.0 mi NNE 3.5 mph - N/A   Clear
8:15 PM 28.4 °F - 10.4 °F 47% 30.00 in 10.0 mi Calm Calm - N/A   Clear
8:35 PM 28.4 °F - 10.4 °F 47% 30.00 in 10.0 mi Calm Calm - N/A   Clear
9:15 PM 26.6 °F - 12.2 °F 55% 30.02 in 10.0 mi Calm Calm - N/A   Clear
9:35 PM 26.6 °F - 10.4 °F 51% 30.02 in 10.0 mi Calm Calm - N/A   Clear
9:55 PM 26.6 °F 22.6 °F 10.4 °F 51% 30.02 in 10.0 mi NE 3.5 mph - N/A   Clear
10:15 PM 26.6 °F - 12.2 °F 55% 30.02 in 10.0 mi Calm Calm - N/A   Clear
10:35 PM 24.8 °F - 12.2 °F 59% 30.03 in 10.0 mi Calm Calm - N/A   Clear
10:55 PM 24.8 °F 20.5 °F 12.2 °F 59% 30.03 in 10.0 mi ENE 3.5 mph - N/A   Clear
11:15 PM 24.8 °F 20.5 °F 14.0 °F 64% 30.03 in 10.0 mi East 3.5 mph - N/A   Clear
11:35 PM 24.8 °F - 12.2 °F 59% 30.04 in 10.0 mi Calm Calm - N/A   Clear
11:55 PM 23.0 °F 18.4 °F 12.2 °F 63% 30.04 in 10.0 mi SE 3.5 mph - N/A   Clear